{"data":{"norad_id":58087,"epoch":"2026-05-24T22:16:57.006048Z","epoch_age_seconds":78262,"freshness":"FRESH","line1":"1 58087U 23160N   26144.92843757  .00001123  00000+0  50311-4 0  9992","line2":"2 58087  43.0030  10.8953 0001001 271.9763  88.0974 15.27581380144569","mean_motion":15.2758138,"eccentricity":0.0001001,"inclination_deg":43.003,"raan_deg":10.8953,"arg_perigee_deg":271.9763,"mean_anomaly_deg":88.0974,"bstar":5.0311e-5,"rev_number":14456,"period_min":94.266663554121,"perigee_km":482.35815951173,"apogee_km":483.73176814089,"semimajor_km":6861.1819638263,"source":"CELESTRAK","updated_at":"2026-05-25T13:38:18.523584Z"}}